User: anonymous   Login
Location: Fort Wayne
(41.1310°N, 85.1290°W)
Time: 17:10:24
(UTC-04:00)
Language:

Cosmos 1000 Rocket - Orbit

View from above orbital plane
View from above orbital plane
View from above satellite
View from above satellite

Ground track
Ground track

The orbit data is extracted from the following two-line orbital elements,

1 10777U 78034B   16150.54400309  .00000149  00000-0  13400-3 0  9997
2 10777  82.9408 155.9257 0025827 189.3796 282.4448 13.77373228917570
Epoch (UTC): 29 May 2016 13:03:21
Eccentricity: 0.0025827
inclination: 82.9408°
perigee height: 954 km
apogee height: 992 km
right ascension of ascending node: 155.9257°
argument of perigee: 189.3796°
revolutions per day: 13.77373228
mean anomaly at epoch: 282.4448°
orbit number at epoch: 91757

The dashed part of the orbit path shows where the satellite is in the earth's shadow,  

DLR